Wind_Speed
0 1 1 1 2 2 3 4 4 5 5 5 6 6 6 7 7 7 7 7 8 8 8 8 6 6 6 6 6 7 7 7 8 8 8 9 9 10 11 11 11 10 11
1 2 2 2 3 3 4 5 6 6 6 6 7 7 7 7 7 7 8 8 9 9 9 8 7 6 6 6 7 7 8 8 9 9 10 10 11 11 11 12 11 12 12
2 2 2 3 3 4 4 5 5 6 7 7 8 8 7 8 8 9 9 9 9 9 9 8 7 7 6 7 8 9 10 10 10 10 11 11 12 12 11 11 12 12 12
3 2 3 3 3 4 5 5 5 6 7 8 8 8 8 9 9 9 9 9 9 9 9 8 8 8 9 9 10 10 10 11 11 11 12 12 12 12 12 13 13 13 12
3 3 3 3 4 5 6 6 6 7 8 8 9 9 9 9 9 9 10 10 11 10 10 10 9 10 10 11 11 11 12 12 12 13 13 13 13 12 12 13 13 13 13
4 4 4 4 5 6 6 7 7 8 8 9 9 9 10 10 10 9 10 11 12 12 11 11 11 11 11 12 13 13 13 13 13 14 14 14 12 12 13 13 13 13 14
5 4 4 5 6 6 6 6 7 7 8 9 9 9 10 10 10 10 10 11 11 12 12 11 11 12 12 12 13 13 13 13 13 13 14 14 13 13 14 14 14 14 14
5 6 6 5 6 6 7 7 7 8 8 8 9 9 9 10 10 10 10 11 12 12 12 11 12 13 13 13 13 14 14 13 13 14 14 14 13 13 14 15 14 14 13
6 6 7 7 7 7 7 7 8 9 9 9 10 10 10 10 11 11 11 12 12 12 12 12 12 12 13 14 14 15 15 14 14 14 15 14 14 14 14 15 15 15 15
7 7 7 8 8 8 8 8 9 9 10 9 10 11 12 12 12 12 12 12 12 12 12 12 12 13 13 13 14 15 15 15 15 14 14 14 14 15 15 15 15 15 15
7 7 8 8 8 9 9 10 10 10 10 10 11 12 12 13 13 13 12 12 13 13 12 12 13 13 13 14 14 14 14 14 14 14 14 15 15 15 16 16 15 15 16
8 8 9 9 9 9 10 10 10 10 11 11 12 12 13 13 13 13 13 13 13 13 13 13 14 14 14 14 14 15 14 14 14 14 13 13 14 14 15 16 16 15 15
10 10 10 10 10 11 11 11 11 11 11 12 12 13 13 13 13 14 13 13 13 13 14 14 15 15 15 15 14 15 14 14 14 14 14 14 14 14 15 15 15 16 15
12 12 12 12 12 12 11 12 12 12 12 13 13 14 14 14 14 14 14 14 14 15 15 15 15 15 15 15 15 15 14 14 14 14 14 15 15 16 16 16 16 16 16
14 14 14 14 14 14 14 13 14 13 14 14 14 14 15 15 15 15 16 16 16 16 15 15 15 15 16 16 15 16 15 15 15 15 15 16 16 16 16 17 17 17 17
15 15 16 15 15 15 16 15 15 15 15 15 15 15 15 16 17 17 17 18 18 17 16 16 15 16 17 17 17 17 17 17 17 17 17 17 17 16 17 17 17 17 17
17 17 17 17 16 17 17 17 17 17 17 18 17 17 17 17 18 18 19 19 19 18 17 17 17 17 18 18 18 18 18 18 18 18 18 18 18 18 18 18 18 18 18
17 18 18 17 17 18 18 19 19 19 19 19 19 18 18 19 19 19 19 20 20 20 19 18 18 18 18 19 19 19 19 19 19 19 19 19 19 19 19 19 19 19 19
18 18 19 19 19 20 20 20 20 20 20 20 21 21 20 20 20 20 20 20 21 21 21 21 21 21 21 21 21 21 21 22 22 21 21 21 21 21 20 21 21 21 20
19 19 20 21 21 21 22 22 22 22 21 21 21 21 21 21 21 21 21 22 22 22 22 22 23 23 23 24 23 23 22 23 23 23 22 22 22 22 22 22 22 22 21
20 20 20 21 21 22 22 23 23 22 22 22 22 22 21 21 22 22 23 23 24 24 24 24 24 25 25 26 25 25 24 24 24 24 24 24 23 23 23 23 23 23 23
21 22 22 23 23 23 23 23 23 22 22 22 22 23 23 23 23 24 25 25 26 26 25 26 26 26 26 26 26 26 25 25 25 25 25 25 24 24 24 24 24 24 23
23 23 23 23 23 23 24 24 24 23 23 23 23 24 24 25 25 26 26 26 27 27 27 28 27 27 28 27 27 27 27 26 26 27 26 26 26 25 25 25 25 25 25
24 24 24 23 24 24 24 24 24 24 25 25 25 25 25 25 26 27 27 27 28 28 28 28 28 28 29 29 29 29 29 28 28 28 28 27 27 27 26 26 26 26 25
24 24 25 25 25 24 25 25 25 26 26 26 26 26 26 27 27 28 28 28 28 29 29 29 29 29 30 30 30 30 30 30 29 28 29 28 28 28 27 26 26 26 27
27 26 26 26 26 25 25 26 26 26 27 27 27 27 27 28 28 29 29 29 29 30 30 30 30 30 31 31 31 31 31 30 30 30 29 29 29 29 28 28 28 28 28
Wind_Direction
183 228 275 260 259 270 286 288 298 308 304 305 308 305 302 300 309 306 307 315 313 312 311 309 300 294 284 277 277 281 283 284 281 285 284 279 282 283 280 277 281 280 277
298 284 276 278 279 285 298 298 296 305 304 301 304 310 309 306 305 302 305 309 312 310 311 313 305 297 288 280 279 282 282 282 285 283 286 285 284 288 287 282 277 279 279
336 300 278 281 288 292 299 297 297 303 309 304 305 306 303 301 299 297 302 301 302 306 308 308 305 299 292 281 280 280 282 285 289 287 287 287 286 286 286 282 280 280 281
349 321 299 304 299 298 296 296 296 301 305 302 301 302 303 299 298 299 302 304 302 303 302 302 298 294 291 288 282 281 284 285 287 287 288 288 287 287 285 283 281 279 281
343 322 310 306 308 305 297 294 293 294 298 299 297 298 300 298 297 298 299 305 305 301 299 300 298 297 293 292 286 283 286 286 287 286 290 291 290 288 288 286 285 280 279
328 326 309 310 307 310 301 296 298 297 297 298 299 300 299 298 299 297 300 307 308 307 301 298 298 299 298 297 295 288 286 285 286 285 288 290 292 289 288 288 286 280 279
333 333 322 307 304 313 314 307 305 301 295 296 301 304 305 305 302 302 304 308 309 308 306 302 299 299 299 299 299 298 292 286 287 287 287 288 285 286 287 285 287 286 281
345 340 342 329 317 315 319 315 311 307 300 301 303 306 309 310 312 311 312 309 307 308 304 302 300 302 301 301 300 302 300 292 290 287 286 287 286 289 291 287 287 287 285
340 338 347 337 329 320 321 318 316 314 310 307 306 308 310 307 305 309 311 313 313 310 305 306 306 304 302 301 301 303 303 299 297 292 287 288 285 288 292 288 287 285 282
336 333 338 337 332 326 322 324 319 316 313 310 309 311 310 306 304 304 308 314 314 313 310 306 305 304 304 303 302 301 303 301 294 291 289 287 286 288 290 289 289 286 281
334 335 334 332 323 322 323 323 323 321 316 314 313 314 315 314 311 310 308 311 312 311 309 304 303 304 305 304 305 304 302 302 295 288 288 288 288 287 289 290 288 287 283
328 331 330 327 321 318 318 319 320 321 318 316 317 319 323 322 317 313 310 309 310 310 311 308 306 304 304 305 305 304 302 301 302 297 292 293 293 293 293 292 290 288 285
318 322 323 322 319 316 314 313 313 315 315 316 317 321 322 324 320 315 312 311 312 312 311 309 308 307 305 307 306 307 303 302 301 300 297 293 293 293 294 295 294 291 288
314 315 317 317 316 315 312 310 309 309 311 312 314 315 317 320 322 319 314 311 310 310 309 308 309 308 306 307 306 307 306 306 302 301 301 298 296 294 294 295 295 292 290
305 308 310 312 313 313 312 309 307 306 307 310 311 311 313 315 317 317 315 314 313 311 307 305 305 306 307 307 308 308 307 306 302 302 303 302 301 299 296 293 292 293 293
298 301 304 305 307 308 311 308 306 306 305 306 307 309 310 311 311 311 313 312 310 310 308 307 306 307 306 306 307 305 304 303 299 296 297 299 302 302 299 297 297 297 297
297 299 301 300 300 301 303 304 304 304 303 303 302 303 304 306 307 308 309 310 309 308 308 308 307 307 305 305 304 303 302 300 297 295 295 294 296 298 297 296 297 297 297
297 297 299 300 299 300 302 302 302 302 302 300 300 300 301 302 304 305 306 306 307 306 304 305 306 305 304 304 303 304 302 302 298 293 291 292 293 294 293 294 295 295 295
297 297 297 298 299 300 301 301 300 300 300 299 300 299 299 300 302 303 304 304 304 303 302 302 302 301 301 302 302 300 300 300 298 293 291 289 290 290 290 291 291 293 292
297 296 297 297 297 297 298 298 299 299 298 298 299 300 298 299 300 300 301 302 302 302 301 300 299 299 299 299 300 299 297 297 295 293 292 290 289 288 289 290 288 288 286
294 295 296 297 298 298 298 298 300 301 300 298 298 298 297 298 299 299 300 300 300 300 300 300 299 298 298 298 297 298 297 295 293 291 289 290 290 289 288 288 287 286 283
292 293 294 295 296 296 298 298 300 298 299 298 297 297 296 296 298 299 299 299 299 299 298 298 299 298 298 298 297 296 295 293 291 290 290 290 290 290 289 288 285 285 282
290 292 292 292 293 293 294 296 298 296 297 299 297 296 295 295 295 295 296 297 298 299 297 298 298 299 299 298 297 296 295 293 294 293 291 289 289 288 287 287 286 285 281
289 291 291 291 290 292 292 294 293 294 294 296 297 295 296 296 294 294 294 296 297 298 299 299 298 298 298 297 297 296 295 294 293 294 292 291 290 289 289 287 286 284 282
289 289 289 289 290 292 292 292 292 292 293 294 294 296 296 295 295 294 294 295 296 296 298 297 295 295 295 295 296 296 296 294 293 292 291 290 289 287 286 286 285 284 282
290 290 290 290 290 291 291 291 292 294 293 292 293 294 294 294 295 295 295 295 295 295 296 295 294 293 294 294 295 295 295 294 292 290 289 288 287 284 283 283 283 283 283
Height
5889 5890 5890 5890 5891 5891 5891 5891 5891 5891 5891 5891 5891 5891 5890 5890 5889 5888 5888 5888 5887 5887 5886 5884 5882 5882 5883 5884 5885 5885 5885 5885 5885 5885 5885 5884 5884 5884 5883 5883 5883 5882 5882
5889 5889 5890 5890 5890 5890 5891 5891 5891 5891 5891 5891 5890 5890 5890 5889 5888 5887 5887 5887 5886 5885 5884 5883 5882 5882 5882 5883 5883 5883 5883 5883 5883 5883 5883 5882 5881 5881 5880 5880 5879 5879 5879
5889 5889 5889 5890 5890 5890 5890 5890 5890 5890 5890 5890 5890 5889 5888 5888 5887 5887 5886 5885 5885 5884 5883 5882 5881 5881 5881 5881 5881 5881 5881 5881 5880 5880 5880 5879 5878 5878 5877 5876 5876 5876 5875
5889 5889 5889 5889 5889 5889 5889 5889 5889 5889 5889 5889 5888 5888 5887 5887 5886 5885 5885 5884 5883 5882 5881 5880 5880 5879 5879 5879 5879 5878 5878 5878 5877 5877 5876 5876 5875 5874 5874 5873 5873 5872 5872
5889 5889 5889 5889 5889 5889 5888 5888 5888 5888 5888 5887 5887 5886 5886 5885 5884 5884 5883 5882 5881 5880 5879 5879 5878 5878 5877 5877 5876 5876 5875 5875 5874 5874 5873 5872 5871 5871 5870 5869 5869 5869 5869
5889 5889 5889 5888 5888 5888 5888 5887 5887 5887 5886 5886 5885 5885 5884 5883 5882 5882 5881 5880 5878 5878 5877 5877 5876 5875 5875 5874 5873 5872 5872 5871 5871 5870 5869 5869 5868 5867 5867 5866 5866 5865 5865
5889 5889 5889 5888 5888 5887 5887 5886 5885 5885 5885 5884 5883 5883 5882 5881 5880 5880 5879 5878 5877 5876 5875 5874 5874 5873 5872 5872 5871 5870 5869 5868 5867 5867 5866 5865 5865 5864 5863 5863 5862 5861 5861
5889 5889 5889 5888 5887 5887 5886 5885 5884 5883 5883 5882 5882 5881 5880 5880 5879 5878 5877 5876 5875 5874 5873 5872 5871 5870 5870 5869 5867 5866 5865 5865 5864 5863 5863 5862 5861 5860 5860 5859 5858 5858 5858
5889 5888 5888 5888 5887 5886 5885 5884 5883 5883 5882 5881 5880 5880 5879 5878 5877 5876 5875 5874 5873 5872 5870 5870 5869 5868 5867 5866 5865 5863 5862 5861 5860 5859 5859 5858 5857 5857 5856 5855 5855 5854 5854
5889 5888 5888 5887 5886 5886 5885 5883 5882 5881 5880 5879 5878 5877 5877 5876 5875 5874 5873 5872 5871 5869 5868 5867 5866 5865 5864 5863 5862 5860 5859 5858 5857 5856 5855 5854 5854 5853 5852 5852 5851 5850 5850
5889 5888 5887 5886 5885 5885 5884 5882 5881 5880 5879 5878 5877 5875 5874 5873 5872 5872 5871 5870 5868 5867 5866 5865 5863 5862 5861 5860 5858 5857 5856 5854 5853 5852 5851 5851 5850 5849 5849 5848 5847 5847 5846
5887 5887 5886 5885 5884 5883 5882 5880 5879 5878 5877 5876 5875 5874 5872 5871 5870 5869 5868 5867 5866 5865 5863 5862 5860 5859 5858 5856 5855 5853 5852 5850 5849 5848 5848 5847 5846 5845 5845 5844 5843 5842 5841
5886 5885 5885 5883 5882 5881 5880 5878 5877 5876 5875 5874 5873 5872 5871 5869 5868 5866 5865 5864 5863 5862 5860 5859 5857 5856 5854 5853 5851 5849 5848 5847 5846 5845 5844 5843 5842 5841 5840 5840 5839 5838 5837
5885 5884 5883 5882 5880 5879 5877 5876 5875 5874 5873 5872 5871 5869 5868 5867 5865 5864 5863 5861 5860 5859 5857 5856 5854 5852 5851 5849 5848 5846 5844 5843 5842 5841 5840 5839 5838 5837 5836 5835 5834 5834 5833
5882 5881 5880 5879 5878 5876 5875 5873 5872 5871 5870 5869 5868 5866 5865 5864 5863 5861 5859 5858 5857 5855 5854 5852 5851 5850 5848 5846 5844 5843 5841 5840 5839 5838 5837 5835 5834 5833 5832 5831 5830 5829 5828
5879 5878 5877 5876 5875 5873 5872 5870 5869 5868 5867 5865 5864 5863 5862 5861 5859 5858 5856 5855 5853 5851 5850 5849 5847 5846 5844 5842 5841 5839 5837 5836 5835 5834 5832 5831 5830 5829 5828 5826 5826 5825 5824
5876 5875 5874 5872 5871 5870 5868 5867 5866 5864 5863 5862 5861 5860 5858 5857 5855 5854 5853 5851 5849 5847 5846 5845 5843 5841 5840 5838 5837 5835 5833 5832 5831 5829 5828 5826 5825 5824 5823 5822 5821 5820 5819
5872 5871 5870 5869 5867 5866 5865 5863 5862 5860 5859 5858 5857 5855 5854 5853 5851 5850 5848 5847 5845 5843 5841 5840 5839 5837 5835 5833 5832 5830 5828 5827 5825 5824 5823 5822 5820 5819 5818 5817 5816 5815 5814
5868 5867 5866 5865 5864 5862 5860 5859 5858 5856 5855 5854 5852 5851 5850 5848 5847 5845 5844 5842 5840 5838 5836 5835 5834 5832 5830 5828 5826 5824 5823 5821 5819 5818 5817 5816 5815 5814 5812 5811 5810 5809 5808
5864 5863 5862 5860 5859 5858 5856 5855 5853 5851 5850 5849 5847 5846 5844 5843 5842 5840 5839 5837 5835 5833 5831 5829 5828 5826 5824 5822 5820 5818 5817 5815 5813 5812 5811 5810 5808 5807 5806 5805 5804 5802 5801
5859 5858 5857 5856 5854 5853 5851 5850 5848 5846 5845 5844 5842 5841 5839 5838 5836 5835 5833 5831 5829 5827 5825 5823 5821 5820 5818 5816 5814 5812 5810 5808 5807 5805 5804 5802 5801 5800 5799 5798 5797 5796 5795
5854 5853 5852 5851 5849 5848 5846 5844 5843 5841 5840 5838 5837 5835 5834 5832 5831 5829 5827 5825 5823 5821 5819 5817 5815 5813 5811 5809 5807 5805 5803 5801 5800 5799 5797 5796 5794 5793 5792 5791 5790 5789 5788
5849 5848 5846 5845 5844 5842 5841 5839 5837 5836 5834 5833 5831 5829 5828 5826 5824 5822 5820 5818 5816 5814 5812 5810 5808 5806 5803 5801 5799 5797 5795 5794 5792 5791 5790 5788 5787 5786 5785 5783 5782 5781 5780
5842 5841 5840 5839 5837 5836 5834 5833 5831 5829 5828 5827 5825 5823 5821 5819 5817 5815 5813 5812 5809 5807 5805 5803 5800 5798 5796 5793 5791 5790 5788 5787 5785 5783 5781 5780 5779 5778 5777 5776 5774 5773 5773
5835 5835 5833 5832 5831 5829 5828 5826 5824 5823 5821 5820 5818 5816 5814 5812 5810 5808 5806 5804 5802 5800 5797 5795 5793 5790 5788 5786 5784 5782 5780 5778 5777 5775 5773 5772 5771 5770 5769 5768 5766 5765 5764
5829 5827 5826 5825 5824 5822 5821 5819 5817 5816 5815 5813 5811 5809 5807 5805 5803 5800 5799 5796 5794 5792 5789 5787 5785 5783 5780 5778 5776 5774 5772 5770 5768 5767 5765 5764 5762 5761 5761 5760 5758 5757 5756